This demonstration page uses our WeatherBlox Daily Observations layout. Learn more.

Left ArrowRight Arrow

Hourly Observations for April 16, 2016

Temp ( °F °C ) Dew Point ( °F °C ) Humidity (%) Winds ( mph kmh ) Pressure ( in mb ) Visibility ( mi km ) Precip ( " mm )
12:15 am 00:15 Clear 63 17 46 8 56 56 SSE 21 33 29.83 1010 10 16 0.00 0.00
12:35 am 00:35 Partly Cloudy 63 17 48 9 59 59 SSE 17 28 29.83 1010 10 16 0.00 0.00
12:55 am 00:55 Partly Cloudy 61 16 48 9 63 63 SSE 21 33 29.83 1010 10 16 0.00 0.00
1:15 am 01:15 Mostly Cloudy 61 16 48 9 63 63 SSE 22 35 29.83 1010 10 16 0.00 0.00
1:35 am 01:35 Cloudy 61 16 48 9 63 63 SSE 21 33 29.83 1010 10 16 0.00 0.00
1:55 am 01:55 Cloudy 61 16 48 9 63 63 SSE 18 30 29.83 1010 10 16 0.00 0.00
2:15 am 02:15 Cloudy 61 16 48 9 63 63 SSE 16 26 29.83 1010 10 16 0.00 0.00
2:35 am 02:35 Cloudy 61 16 48 9 63 63 SSE 17 28 29.83 1010 10 16 0.00 0.00
2:55 am 02:55 Cloudy 61 16 48 9 63 63 SSE 17 28 29.83 1010 10 16 0.00 0.00
3:15 am 03:15 Cloudy 59 15 48 9 68 68 SSE 16 26 29.83 1010 10 16 0.00 0.00
3:35 am 03:35 Cloudy 59 15 48 9 68 68 SSE 16 26 29.83 1010 10 16 0.00 0.00
3:55 am 03:55 Mostly Cloudy 57 14 48 9 72 72 SSE 18 30 29.85 1011 10 16 0.00 0.00
4:15 am 04:15 Mostly Cloudy 57 14 48 9 72 72 SSE 16 26 29.85 1011 10 16 0.00 0.00
4:35 am 04:35 Mostly Clear 57 14 48 9 72 72 SSE 17 28 29.85 1011 10 16 0.00 0.00
4:55 am 04:55 Mostly Cloudy 57 14 48 9 72 72 SSE 16 26 29.85 1011 10 16 0.00 0.00
5:15 am 05:15 Cloudy 57 14 48 9 72 72 SE 17 28 29.85 1011 10 16 0.00 0.00
5:35 am 05:35 Cloudy 57 14 48 9 72 72 SE 20 31 29.85 1011 10 16 0.00 0.00
5:55 am 05:55 Cloudy 55 13 50 10 82 82 SSE 18 30 29.85 1011 10 16 0.00 0.00
6:15 am 06:15 Cloudy 55 13 50 10 82 82 SSE 17 28 29.85 1011 10 16 0.00 0.00
6:35 am 06:35 Cloudy 55 13 50 10 82 82 SSE 17 28 29.85 1011 10 16 0.00 0.00
6:55 am 06:55 Cloudy 55 13 50 10 82 82 SSE 16 26 29.88 1012 10 16 0.00 0.00
7:15 am 07:15 Cloudy 55 13 52 11 88 88 S 16 26 29.88 1012 10 16 0.00 0.00
7:35 am 07:35 Cloudy 55 13 52 11 88 88 SE 16 26 29.88 1012 10 16 0.00 0.00
7:55 am 07:55 Cloudy 55 13 52 11 88 88 SSE 15 24 29.88 1012 5 8 0.00 0.00
8:15 am 08:15 Cloudy 55 13 52 11 88 88 SSE 14 22 29.91 1013 9 14 0.00 0.00
8:35 am 08:35 Cloudy 55 13 52 11 88 88 SE 15 24 29.91 1013 7 11 0.01 0.25
8:55 am 08:55 Cloudy 55 13 54 12 94 94 SSE 15 24 29.94 1014 7 11 0.01 0.25
9:15 am 09:15 Cloudy 55 13 54 12 94 94 SSE 14 22 29.94 1014 5 8 0.00 0.00
9:35 am 09:35 Cloudy 55 13 54 12 94 94 SE 18 30 29.94 1014 5 8 0.01 0.25
9:55 am 09:55 Mostly Cloudy 55 13 54 12 94 94 SE 14 22 29.94 1014 5 8 0.03 0.76
10:15 am 10:15 Cloudy 55 13 54 12 94 94 SSE 13 20 29.94 1014 5 8 0.00 0.00
10:35 am 10:35 Cloudy 57 14 54 12 88 88 SE 16 26 29.94 1014 5 8 0.05 1.27
10:55 am 10:55 Cloudy 57 14 54 12 88 88 SE 16 26 29.97 1015 5 8 0.06 1.52
11:15 am 11:15 Cloudy 57 14 54 12 88 88 SE 17 28 29.97 1015 5 8 0.00 0.00
11:35 am 11:35 Cloudy 57 14 54 12 88 88 SE 18 30 29.97 1015 5 8 0.18 4.57
11:55 am 11:55 Cloudy 57 14 54 12 88 88 SE 22 35 29.97 1015 5 8 0.24 6.10
12:15 pm 12:15 Cloudy 57 14 54 12 88 88 SE 18 30 29.97 1015 5 8 0.00 0.00
12:35 pm 12:35 Cloudy 57 14 54 12 88 88 SE 18 30 29.97 1015 5 8 0.15 3.81
12:55 pm 12:55 Cloudy 57 14 54 12 88 88 SE 15 24 29.97 1015 5 8 0.22 5.59
1:15 pm 13:15 Cloudy with Nearby Thunderstorms 55 13 54 12 94 94 SE 22 35 29.97 1015 6 10 0.00 0.00
1:35 pm 13:35 Cloudy with Nearby Thunderstorms 55 13 54 12 94 94 SE 23 37 29.97 1015 5 8 0.12 3.05
1:55 pm 13:55 Cloudy 57 14 54 12 88 88 SE 17 28 29.97 1015 5 8 0.17 4.32
2:15 pm 14:15 Cloudy 57 14 54 12 88 88 SE 13 20 29.97 1015 5 8 0.00 0.00
2:35 pm 14:35 Cloudy 57 14 54 12 88 88 ESE 14 22 29.97 1015 5 8 0.13 3.30
2:55 pm 14:55 Cloudy 57 14 54 12 88 88 ESE 12 19 29.97 1015 4 6 0.16 4.06
3:15 pm 15:15 Cloudy 57 14 54 12 88 88 ESE 10 17 29.97 1015 4 6 0.00 0.00
3:35 pm 15:35 Cloudy 57 14 54 12 88 88 E 14 22 29.97 1015 5 8 0.08 2.03
3:55 pm 15:55 Cloudy 57 14 54 12 88 88 E 14 22 29.97 1015 4 6 0.10 2.54
4:15 pm 16:15 Cloudy 57 14 54 12 88 88 E 14 22 29.97 1015 5 8 0.00 0.00
4:35 pm 16:35 Cloudy 57 14 54 12 88 88 E 18 30 29.94 1014 4 6 0.10 2.54
4:55 pm 16:55 Cloudy 57 14 54 12 88 88 E 18 30 29.94 1014 5 8 0.13 3.30
5:15 pm 17:15 Cloudy 57 14 54 12 88 88 E 15 24 29.94 1014 7 11 0.00 0.00
5:35 pm 17:35 Cloudy 57 14 54 12 88 88 E 14 22 29.94 1014 5 8 0.08 2.03
5:55 pm 17:55 Cloudy 57 14 54 12 88 88 ENE 12 19 29.94 1014 5 8 0.15 3.81
6:15 pm 18:15 Cloudy 57 14 54 12 88 88 E 9 15 29.97 1015 5 8 0.00 0.00
6:35 pm 18:35 Cloudy 57 14 54 12 88 88 E 10 17 29.97 1015 4 6 0.14 3.56
6:55 pm 18:55 Cloudy 57 14 54 12 88 88 ENE 13 20 29.97 1015 5 8 0.21 5.33
7:15 pm 19:15 Cloudy 57 14 54 12 88 88 ENE 16 26 29.94 1014 7 11 0.00 0.00
7:35 pm 19:35 Mostly Cloudy 57 14 54 12 88 88 E 16 26 29.97 1015 4 6 0.06 1.52
7:55 pm 19:55 Mostly Cloudy 57 14 54 12 88 88 E 14 22 29.97 1015 5 8 0.09 2.29
8:15 pm 20:15 Mostly Cloudy 57 14 54 12 88 88 E 14 22 29.97 1015 4 6 0.00 0.00
8:35 pm 20:35 Cloudy 57 14 54 12 88 88 E 15 24 29.97 1015 5 8 0.08 2.03
8:55 pm 20:55 Mostly Cloudy 57 14 54 12 88 88 ENE 10 17 29.97 1015 5 8 0.09 2.29
9:15 pm 21:15 Cloudy 57 14 54 12 88 88 E 6 9 30.00 1016 5 8 0.00 0.00
9:35 pm 21:35 Cloudy 57 14 54 12 88 88 ENE 6 9 30.00 1016 3 4 0.20 5.08
9:55 pm 21:55 Cloudy 57 14 54 12 88 88 ENE 10 17 30.00 1016 3 5 0.33 8.38
10:15 pm 22:15 Cloudy 54 12 48 9 82 82 NNE 17 28 30.03 1017 10 16 0.00 0.00
10:35 pm 22:35 Cloudy 54 12 48 9 82 82 NE 14 22 29.97 1015 10 16 0.02 0.51
10:55 pm 22:55 Cloudy 52 11 48 9 88 88 NE 15 24 30.03 1017 10 16 0.02 0.51
11:15 pm 23:15 Cloudy 52 11 48 9 88 88 NNE 12 19 30.03 1017 9 14 0.00 0.00
11:35 pm 23:35 Cloudy 52 11 46 8 82 82 N 9 15 30.03 1017 10 16 0.09 2.29
11:55 pm 23:55 Cloudy 52 11 48 9 88 88 WNW 5 7 30.03 1017 9 14 0.14 3.56

Powered by AerisWeather